Owatonna, MN

2:12 AM CST on December 03, 2016 (GMT -0600)
Owatonna Degner Regional

Weather History for KOWA - August, 2014

Change the Weather History Date:

Sunday, August 17, 2014

  Actual Average Record
Temperature  
Mean Temperature 73 °F -  
Max Temperature 84 °F 84 °F 99 °F (1988)
Min Temperature 62 °F 59 °F 44 °F (1962)
Cooling Degree Days 8    
Growing Degree Days 23 (Base 50)    
Moisture  
Dew Point 66 °F    
Average Humidity 79    
Maximum Humidity 100    
Minimum Humidity 55    
Precipitation  
Precipitation 0.81 in - - ()
Sea Level Pressure  
Sea Level Pressure 29.93 in    
Wind  
Wind Speed 2 mph (SSE)    
Max Wind Speed 14 mph    
Max Gust Speed 22 mph    
Visibility 7 miles    
Events Fog , Rain , Thunderstorm    
Averages and records for this station are not official NWS values.
T = Trace of Precipitation, MM = Missing Value Source: NWS Daily Summary

Daily Weather History Graph

Daily Weather History Graph

Search for Another Location

Airport or City:

Trip Planner

Search our weather history database for the weather conditions in past years. The results will help you decide how hot, cold, wet, or windy it might be!

Date:

Astronomy

Aug. 17, 2014 Rise Set
Actual Time 6:18 AM CDT 8:14 PM CDT
Civil Twilight 5:47 AM CDT 8:45 PM CDT
Nautical Twilight 5:09 AM CDT 9:23 PM CDT
Astronomical Twilight 4:27 AM CDT 10:04 PM CDT
Moon No Moon Rise 2:22 PM CDT (8/17)
Length of Visible Light 14h 57m
Length of Day
13h 55m
Waning Gibbous, 48% of the Moon is Illuminated
Aug 17
Waning Gibbous
Aug 25
New
Sep 2
First Quarter
Sep 8
Full
Sep 15
Last Quarter

Hourly Weather History & Observations

Time (CDT) Temp. Heat Index Dew Point Humidity Pressure Visibility Wind Dir Wind Speed Gust Speed Precip Events Conditions
12:15 AM 68.0 °F - 64.4 °F 88% 29.93 in 7.0 mi Calm Calm - N/A   Clear
12:35 AM 66.2 °F - 64.4 °F 94% 29.93 in 7.0 mi Calm Calm - N/A   Clear
12:55 AM 66.2 °F - 64.4 °F 94% 29.93 in 5.0 mi Calm Calm - N/A   Clear
1:15 AM 64.4 °F - 62.6 °F 94% 29.93 in 5.0 mi Calm Calm - N/A   Clear
1:35 AM 64.4 °F - 62.6 °F 94% 29.93 in 5.0 mi Calm Calm - N/A   Clear
1:55 AM 64.4 °F - 62.6 °F 94% 29.94 in 2.0 mi Calm Calm - N/A   Clear
2:15 AM 66.2 °F - 64.4 °F 94% 29.94 in 5.0 mi Calm Calm - N/A   Clear
2:35 AM 66.2 °F - 64.4 °F 94% 29.94 in 3.0 mi Calm Calm - N/A   Clear
2:55 AM 64.4 °F - 62.6 °F 94% 29.94 in 3.0 mi Calm Calm - N/A   Clear
3:15 AM 64.4 °F - 62.6 °F 94% 29.94 in 4.0 mi Calm Calm - N/A   Clear
3:35 AM 64.4 °F - 62.6 °F 94% 29.94 in 4.0 mi Calm Calm - N/A   Clear
3:55 AM 62.6 °F - 60.8 °F 94% 29.94 in 2.5 mi Calm Calm - N/A   Clear
4:15 AM 64.4 °F - 62.6 °F 94% 29.94 in 0.5 mi Calm Calm - N/A Fog Fog
4:35 AM 64.4 °F - 62.6 °F 94% 29.94 in 2.0 mi Calm Calm - N/A   Mostly Cloudy
4:55 AM 64.4 °F - 62.6 °F 94% 29.94 in 1.2 mi Calm Calm - N/A   Mostly Cloudy
5:15 AM 62.6 °F - 62.6 °F 100% 29.94 in 3.0 mi Calm Calm - N/A   Clear
5:35 AM 62.6 °F - 60.8 °F 94% 29.94 in 4.0 mi Calm Calm - N/A   Clear
5:55 AM 62.6 °F - 60.8 °F 94% 29.95 in 2.0 mi Calm Calm - N/A   Clear
6:15 AM 62.6 °F - 60.8 °F 94% 29.96 in 0.2 mi Calm Calm - N/A Fog Fog
6:35 AM 62.6 °F - 60.8 °F 94% 29.96 in 0.2 mi Calm Calm - N/A Fog Fog
6:55 AM 62.6 °F - 60.8 °F 94% 29.96 in 0.2 mi Calm Calm - N/A Fog Fog
7:15 AM 64.4 °F - 62.6 °F 94% 29.96 in 0.2 mi Calm Calm - N/A Fog Fog
7:35 AM 66.2 °F - 64.4 °F 94% 29.95 in 2.5 mi Calm Calm - N/A   Scattered Clouds
7:55 AM 68.0 °F - 66.2 °F 94% 29.95 in 3.0 mi Calm Calm - N/A   Clear
8:15 AM 69.8 °F - 66.2 °F 88% 29.96 in 5.0 mi Calm Calm - N/A   Clear
8:35 AM 71.6 °F - 68.0 °F 88% 29.96 in 7.0 mi Calm Calm - N/A   Clear
8:55 AM 71.6 °F - 68.0 °F 88% 29.96 in 7.0 mi Calm Calm - N/A   Clear
9:15 AM 75.2 °F - 68.0 °F 78% 29.97 in 10.0 mi East 3.5 mph - N/A   Clear
9:35 AM 75.2 °F - 68.0 °F 78% 29.97 in 10.0 mi Calm Calm - N/A   Clear
9:55 AM 77.0 °F - 68.0 °F 74% 29.97 in 10.0 mi Calm Calm - N/A   Clear
10:15 AM 77.0 °F - 68.0 °F 74% 29.98 in 10.0 mi Calm Calm - N/A   Scattered Clouds
10:35 AM 78.8 °F - 68.0 °F 69% 29.99 in 10.0 mi Calm Calm - N/A   Scattered Clouds
10:55 AM 78.8 °F - 68.0 °F 69% 29.99 in 10.0 mi Calm Calm - N/A   Scattered Clouds
11:15 AM 78.8 °F - 68.0 °F 69% 29.98 in 10.0 mi Calm Calm - N/A   Clear
11:35 AM 78.8 °F - 68.0 °F 69% 29.98 in 10.0 mi Calm Calm - N/A   Clear
11:55 AM 80.6 °F 83.2 °F 68.0 °F 65% 29.97 in 10.0 mi Calm Calm - N/A   Scattered Clouds
12:15 PM 82.4 °F 84.6 °F 66.2 °F 58% 29.96 in 10.0 mi SSE 6.9 mph - N/A   Scattered Clouds
12:35 PM 82.4 °F 84.6 °F 66.2 °F 58% 29.96 in 10.0 mi SSE 3.5 mph - N/A   Scattered Clouds
12:55 PM 82.4 °F 84.6 °F 66.2 °F 58% 29.95 in 10.0 mi South 4.6 mph - N/A   Scattered Clouds
1:15 PM 84.2 °F 86.6 °F 66.2 °F 55% 29.94 in 10.0 mi SSW 5.8 mph - N/A   Scattered Clouds
1:35 PM 84.2 °F 87.3 °F 68.0 °F 58% 29.93 in 10.0 mi South 9.2 mph - N/A   Scattered Clouds
1:55 PM 84.2 °F 86.6 °F 66.2 °F 55% 29.93 in 10.0 mi SSW 9.2 mph - N/A   Scattered Clouds
2:15 PM 82.4 °F 86.3 °F 69.8 °F 66% 29.93 in 10.0 mi SSE 12.7 mph 18.4 mph N/A   Mostly Cloudy
2:35 PM 84.2 °F 88.4 °F 69.8 °F 62% 29.92 in 10.0 mi South 8.1 mph - N/A   Scattered Clouds
2:55 PM 82.4 °F 86.3 °F 69.8 °F 66% 29.92 in 10.0 mi South 9.2 mph 16.1 mph N/A   Clear
3:15 PM 84.2 °F 87.3 °F 68.0 °F 58% 29.91 in 10.0 mi South 11.5 mph 16.1 mph N/A   Scattered Clouds
3:35 PM 84.2 °F 87.3 °F 68.0 °F 58% 29.91 in 10.0 mi South 6.9 mph - N/A   Scattered Clouds
3:55 PM 82.4 °F 85.4 °F 68.0 °F 62% 29.91 in 10.0 mi South 10.4 mph - N/A   Mostly Cloudy
4:15 PM 78.8 °F - 71.6 °F 78% 29.90 in 10.0 mi SSE 6.9 mph - N/A Rain Light Rain
4:35 PM 80.6 °F 84.6 °F 71.6 °F 74% 29.90 in 10.0 mi SSE 4.6 mph - N/A   Scattered Clouds
5:15 PM 82.4 °F 86.3 °F 69.8 °F 66% 29.90 in 10.0 mi SSE 9.2 mph - N/A   Mostly Cloudy
5:35 PM 82.4 °F 87.2 °F 71.6 °F 70% 29.89 in 10.0 mi SSE 10.4 mph - N/A   Mostly Cloudy
5:55 PM 80.6 °F 83.9 °F 69.8 °F 70% 29.88 in 10.0 mi South 9.2 mph - N/A   Clear
6:15 PM 82.4 °F 86.3 °F 69.8 °F 66% 29.88 in 10.0 mi SSW 8.1 mph - N/A   Clear
6:35 PM 82.4 °F 85.4 °F 68.0 °F 62% 29.87 in 10.0 mi SSW 8.1 mph - N/A   Scattered Clouds
6:55 PM 80.6 °F 83.2 °F 68.0 °F 65% 29.87 in 10.0 mi SSW 4.6 mph - N/A   Clear
7:15 PM 80.6 °F 83.2 °F 68.0 °F 65% 29.88 in 10.0 mi SSW 3.5 mph - N/A   Clear
7:35 PM 78.8 °F - 69.8 °F 74% 29.88 in 10.0 mi South 3.5 mph - N/A   Scattered Clouds
7:55 PM 78.8 °F - 68.0 °F 69% 29.88 in 10.0 mi Calm Calm - N/A   Scattered Clouds
8:15 PM 75.2 °F - 66.2 °F 73% 29.89 in 10.0 mi ENE 6.9 mph - N/A   Mostly Cloudy
8:35 PM 73.4 °F - 64.4 °F 73% 29.89 in 10.0 mi ENE 10.4 mph - N/A Thunderstorm Overcast
8:55 PM 71.6 °F - 64.4 °F 78% 29.90 in 10.0 mi East 11.5 mph - N/A   Mostly Cloudy
9:15 PM 69.8 °F - 64.4 °F 83% 29.91 in 10.0 mi NE 6.9 mph 11.5 mph N/A Thunderstorm Mostly Cloudy
9:35 PM 69.8 °F - 64.4 °F 83% 29.90 in 10.0 mi East 12.7 mph - N/A   Overcast
9:55 PM 68.0 °F - 64.4 °F 88% 29.90 in 10.0 mi East 10.4 mph - N/A   Mostly Cloudy
10:15 PM 68.0 °F - 64.4 °F 88% 29.90 in 10.0 mi East 11.5 mph - 0.03 in Rain Light Rain
10:35 PM 69.8 °F - 66.2 °F 88% 29.91 in 7.0 mi SSE 9.2 mph - 0.08 in Rain , Thunderstorm Heavy Thunderstorms and Rain
10:55 PM 69.8 °F - 66.2 °F 88% 29.89 in 3.0 mi ESE 13.8 mph 21.9 mph 0.71 in Rain Heavy Rain
11:15 PM 69.8 °F - 66.2 °F 88% 29.89 in 10.0 mi ESE 11.5 mph - 0.02 in Rain , Thunderstorm Light Thunderstorms and Rain
11:35 PM 69.8 °F - 66.2 °F 88% 29.88 in 10.0 mi SE 8.1 mph 16.1 mph 0.10 in Rain Light Rain
11:55 PM 71.6 °F - 68.0 °F 88% 29.87 in 10.0 mi South 4.6 mph - 0.10 in Thunderstorm Mostly Cloudy